Time,TemperatureF,DewpointF,PressureIn,WindDirection,WindDirectionDegrees,WindSpeedMPH,WindSpeedGustMPH,Humidity,HourlyPrecipIn,Conditions,Clouds,dailyrainin,SoftwareType,DateUTC
2013-01-27 00:02:00,44.0,43.2,28.71,South,179,2.2,3.5,97,0.00,RA,,0.00,WeatherDisplay:10.37,2013-01-27 00:02:00,
2013-01-27 00:07:00,44.1,43.3,28.71,West,261,2.3,4.6,97,0.00,RA,,0.00,WeatherDisplay:10.37,2013-01-27 00:07:00,
2013-01-27 00:12:00,44.1,43.3,28.70,NW,319,2.1,3.5,97,0.00,CLR,,0.00,WeatherDisplay:10.37,2013-01-27 00:12:00,
2013-01-27 00:17:00,44.0,43.2,28.71,ENE,62,1.2,3.5,97,0.00,CLR,,0.00,WeatherDisplay:10.37,2013-01-27 00:17:00,
2013-01-27 00:22:00,44.0,43.2,28.72,North,10,1.6,4.6,97,0.00,CLR,,0.00,WeatherDisplay:10.37,2013-01-27 00:22:00,
2013-01-27 00:27:00,43.9,43.1,28.72,ENE,69,0.7,2.3,97,0.00,CLR,,0.00,WeatherDisplay:10.37,2013-01-27 00:27:00,
2013-01-27 00:32:00,43.9,43.1,28.71,North,355,1.7,3.5,97,0.00,CLR,,0.00,WeatherDisplay:10.37,2013-01-27 00:32:00,
2013-01-27 00:37:00,43.8,43.0,28.71,NW,315,2.6,4.6,97,0.00,CLR,,0.00,WeatherDisplay:10.37,2013-01-27 00:37:00,
2013-01-27 00:42:00,43.6,42.8,28.71,WSW,251,2.3,2.3,97,0.00,CLR,,0.00,WeatherDisplay:10.37,2013-01-27 00:42:00,
2013-01-27 00:47:00,43.4,42.6,28.71,SW,217,1.8,3.5,97,0.00,CLR,,0.00,WeatherDisplay:10.37,2013-01-27 00:47:00,
2013-01-27 00:52:00,43.1,42.3,28.70,WNW,291,1.2,2.3,97,0.00,CLR,,0.00,WeatherDisplay:10.37,2013-01-27 00:52:00,
2013-01-27 00:57:00,42.9,42.1,28.70,West,273,1.3,3.5,97,0.00,CLR,,0.00,WeatherDisplay:10.37,2013-01-27 00:57:00,
2013-01-27 01:02:00,42.7,41.9,28.70,West,273,1.0,2.3,97,0.00,CLR,,0.00,WeatherDisplay:10.37,2013-01-27 01:02:00,
2013-01-27 01:07:00,42.7,41.9,28.70,NNW,327,1.2,2.3,97,0.00,CLR,,0.00,WeatherDisplay:10.37,2013-01-27 01:07:00,
2013-01-27 01:12:00,42.8,42.0,28.70,West,267,1.3,2.3,97,0.00,CLR,,0.00,WeatherDisplay:10.37,2013-01-27 01:12:00,
2013-01-27 01:17:00,42.8,42.0,28.70,WSW,245,3.4,8.1,97,0.00,CLR,,0.00,WeatherDisplay:10.37,2013-01-27 01:17:00,
2013-01-27 01:22:00,42.8,42.0,28.70,West,265,3.4,4.6,97,0.00,CLR,,0.00,WeatherDisplay:10.37,2013-01-27 01:22:00,
2013-01-27 01:27:00,42.7,41.9,28.70,WSW,252,2.4,5.8,97,0.00,CLR,,0.00,WeatherDisplay:10.37,2013-01-27 01:27:00,
2013-01-27 01:32:00,42.7,41.9,28.70,WSW,258,3.6,4.6,97,0.00,CLR,,0.00,WeatherDisplay:10.37,2013-01-27 01:32:00,
2013-01-27 01:37:00,42.6,41.8,28.70,NW,309,2.9,4.6,97,0.00,CLR,,0.00,WeatherDisplay:10.37,2013-01-27 01:37:00,
2013-01-27 01:42:00,42.7,41.9,28.70,WSW,238,2.1,2.3,97,0.00,CLR,,0.00,WeatherDisplay:10.37,2013-01-27 01:42:00,
2013-01-27 01:47:00,42.7,41.9,28.70,WNW,283,3.3,3.5,97,0.00,CLR,,0.00,WeatherDisplay:10.37,2013-01-27 01:47:00,
2013-01-27 01:52:00,42.8,42.0,28.70,SW,236,4.0,7.0,97,0.00,CLR,,0.00,WeatherDisplay:10.37,2013-01-27 01:52:00,
2013-01-27 01:57:00,42.7,41.6,28.70,WSW,246,2.3,8.1,96,0.00,CLR,,0.00,WeatherDisplay:10.37,2013-01-27 01:57:00,
2013-01-27 02:02:00,42.6,41.5,28.69,SW,222,5.9,11.5,96,0.00,CLR,,0.00,WeatherDisplay:10.37,2013-01-27 02:02:00,
2013-01-27 02:07:00,42.6,41.3,28.70,NW,305,5.1,10.4,95,0.00,CLR,,0.00,WeatherDisplay:10.37,2013-01-27 02:07:00,
2013-01-27 02:12:00,42.6,41.3,28.70,WSW,251,4.4,9.2,95,0.00,CLR,,0.00,WeatherDisplay:10.37,2013-01-27 02:12:00,
2013-01-27 02:17:00,42.8,41.5,28.70,WNW,302,6.4,11.5,95,0.00,CLR,,0.00,WeatherDisplay:10.37,2013-01-27 02:17:00,
2013-01-27 02:22:00,42.9,41.6,28.70,SW,236,5.5,9.0,95,0.00,CLR,,0.00,WeatherDisplay:10.37,2013-01-27 02:22:00,
2013-01-27 02:27:00,43.0,41.7,28.70,WSW,238,4.9,10.4,95,0.00,CLR,,0.00,WeatherDisplay:10.37,2013-01-27 02:27:00,
2013-01-27 02:32:00,43.1,41.8,28.69,SW,231,6.6,10.4,95,0.00,CLR,,0.00,WeatherDisplay:10.37,2013-01-27 02:32:00,
2013-01-27 02:37:00,43.1,41.5,28.69,WSW,240,3.7,10.4,94,0.00,CLR,,0.00,WeatherDisplay:10.37,2013-01-27 02:37:00,
2013-01-27 02:42:00,43.1,41.8,28.69,SW,222,3.7,10.4,95,0.00,CLR,,0.00,WeatherDisplay:10.37,2013-01-27 02:42:00,
2013-01-27 02:47:00,43.1,41.8,28.70,SW,230,4.5,8.1,95,0.00,CLR,,0.00,WeatherDisplay:10.37,2013-01-27 02:47:00,
2013-01-27 02:52:00,43.2,41.9,28.69,WSW,239,4.8,11.5,95,0.00,CLR,,0.00,WeatherDisplay:10.37,2013-01-27 02:52:00,
2013-01-27 02:57:00,43.3,41.7,28.69,WSW,250,4.7,5.8,94,0.00,CLR,,0.00,WeatherDisplay:10.37,2013-01-27 02:57:00,
2013-01-27 03:02:00,43.3,41.7,28.69,West,259,4.4,4.6,94,0.00,CLR,,0.00,WeatherDisplay:10.37,2013-01-27 03:02:00,
2013-01-27 03:07:00,43.2,41.6,28.68,SW,228,1.8,6.9,94,0.00,CLR,,0.00,WeatherDisplay:10.37,2013-01-27 03:07:00,
2013-01-27 03:12:00,43.2,41.6,28.68,WSW,250,3.0,3.5,94,0.00,CLR,,0.00,WeatherDisplay:10.37,2013-01-27 03:12:00,
2013-01-27 03:17:00,43.2,41.6,28.68,WSW,246,1.8,5.8,94,0.00,CLR,,0.00,WeatherDisplay:10.37,2013-01-27 03:17:00,
2013-01-27 03:22:00,43.2,41.6,28.68,SW,223,3.9,4.6,94,0.00,CLR,,0.00,WeatherDisplay:10.37,2013-01-27 03:22:00,
2013-01-27 03:27:00,43.2,41.3,28.68,SW,225,3.1,8.1,93,0.00,CLR,,0.00,WeatherDisplay:10.37,2013-01-27 03:27:00,
2013-01-27 03:32:00,43.1,41.2,28.68,SW,221,2.7,5.8,93,0.00,CLR,,0.00,WeatherDisplay:10.37,2013-01-27 03:32:00,
2013-01-27 03:37:00,43.1,41.2,28.68,SSW,213,5.6,6.9,93,0.00,CLR,,0.00,WeatherDisplay:10.37,2013-01-27 03:37:00,
2013-01-27 03:42:00,43.1,41.2,28.68,SW,215,4.6,10.4,93,0.00,CLR,,0.00,WeatherDisplay:10.37,2013-01-27 03:42:00,
2013-01-27 03:47:00,43.0,41.1,28.67,WSW,250,5.1,11.5,93,0.00,CLR,,0.00,WeatherDisplay:10.37,2013-01-27 03:47:00,
2013-01-27 03:52:00,42.9,41.0,28.67,SSW,198,5.0,12.7,93,0.00,CLR,,0.00,WeatherDisplay:10.37,2013-01-27 03:52:00,
2013-01-27 03:57:00,42.4,40.5,28.68,North,5,6.2,15.0,93,0.00,CLR,,0.00,WeatherDisplay:10.37,2013-01-27 03:57:00,
2013-01-27 04:02:00,42.2,40.3,28.67,SW,234,5.0,10.4,93,0.00,CLR,,0.00,WeatherDisplay:10.37,2013-01-27 04:02:00,
2013-01-27 04:07:00,42.2,40.3,28.67,SW,233,5.5,12.7,93,0.00,CLR,,0.00,WeatherDisplay:10.37,2013-01-27 04:07:00,
2013-01-27 04:12:00,41.9,39.7,28.67,SW,230,6.6,11.5,92,0.00,CLR,,0.00,WeatherDisplay:10.37,2013-01-27 04:12:00,
2013-01-27 04:17:00,41.7,39.8,28.68,NW,309,8.2,12.7,93,0.00,CLR,,0.00,WeatherDisplay:10.37,2013-01-27 04:17:00,
2013-01-27 04:22:00,41.6,39.7,28.68,ENE,70,5.7,15.0,93,0.00,CLR,,0.00,WeatherDisplay:10.37,2013-01-27 04:22:00,
2013-01-27 04:27:00,41.5,39.6,28.68,North,360,7.4,11.5,93,0.00,CLR,,0.00,WeatherDisplay:10.37,2013-01-27 04:27:00,
2013-01-27 04:32:00,41.3,39.2,28.68,WNW,284,8.5,17.3,92,0.00,CLR,,0.00,WeatherDisplay:10.37,2013-01-27 04:32:00,
2013-01-27 04:37:00,41.3,39.2,28.69,NNW,329,4.9,9.2,92,0.00,CLR,,0.00,WeatherDisplay:10.37,2013-01-27 04:37:00,
2013-01-27 04:42:00,41.1,39.2,28.69,WSW,248,7.7,8.1,93,0.00,CLR,,0.00,WeatherDisplay:10.37,2013-01-27 04:42:00,
2013-01-27 04:47:00,41.1,39.2,28.70,NW,322,9.0,12.7,93,0.00,CLR,,0.00,WeatherDisplay:10.37,2013-01-27 04:47:00,
2013-01-27 04:52:00,41.1,39.2,28.70,NW,325,4.0,8.1,93,0.00,CLR,,0.00,WeatherDisplay:10.37,2013-01-27 04:52:00,
2013-01-27 04:57:00,41.0,39.1,28.71,NW,317,4.7,8.1,93,0.00,CLR,,0.00,WeatherDisplay:10.37,2013-01-27 04:57:00,
2013-01-27 05:00:00,40.9,39.3,28.71,NW,316,3.8,9.2,94,0.00,CLR,,0.00,WeatherDisplay:10.37,2013-01-27 05:00:00,
2013-01-27 05:01:00,40.9,39.3,28.71,NNW,342,5.4,9.2,94,0.00,CLR,,0.00,WeatherDisplay:10.37,2013-01-27 05:01:00,
2013-01-27 05:02:00,40.9,39.3,28.71,NNW,338,5.5,8.1,94,0.00,CLR,,0.00,WeatherDisplay:10.37,2013-01-27 05:02:00,
2013-01-27 05:07:00,40.8,39.2,28.72,WNW,295,6.4,10.4,94,0.00,CLR,,0.00,WeatherDisplay:10.37,2013-01-27 05:07:00,
2013-01-27 05:12:00,40.2,38.3,28.74,North,355,5.5,17.3,93,0.00,CLR,,0.00,WeatherDisplay:10.37,2013-01-27 05:12:00,
2013-01-27 05:17:00,38.7,36.6,28.74,WSW,253,8.3,18.4,92,0.00,CLR,,0.00,WeatherDisplay:10.37,2013-01-27 05:17:00,
2013-01-27 05:22:00,37.9,36.1,28.73,NW,311,7.5,11.5,93,0.00,CLR,,0.00,WeatherDisplay:10.37,2013-01-27 05:22:00,
2013-01-27 05:27:00,37.7,35.9,28.73,SW,215,7.3,12.7,93,0.00,CLR,,0.00,WeatherDisplay:10.37,2013-01-27 05:27:00,
2013-01-27 05:32:00,37.7,36.1,28.73,NW,320,3.4,8.1,94,0.00,CLR,,0.00,WeatherDisplay:10.37,2013-01-27 05:32:00,
2013-01-27 05:37:00,37.7,36.1,28.74,South,178,2.8,6.9,94,0.00,CLR,,0.00,WeatherDisplay:10.37,2013-01-27 05:37:00,
2013-01-27 05:42:00,37.8,36.2,28.74,WSW,252,5.1,12.0,94,0.00,CLR,,0.00,WeatherDisplay:10.37,2013-01-27 05:42:00,
2013-01-27 05:47:00,37.9,36.1,28.74,WSW,244,7.5,13.8,93,0.00,CLR,,0.00,WeatherDisplay:10.37,2013-01-27 05:47:00,
2013-01-27 05:52:00,38.0,36.2,28.72,WNW,303,3.5,5.8,93,0.00,CLR,,0.00,WeatherDisplay:10.37,2013-01-27 05:52:00,
2013-01-27 05:57:00,38.1,36.0,28.73,WSW,250,7.2,12.0,92,0.00,CLR,,0.00,WeatherDisplay:10.37,2013-01-27 05:57:00,
2013-01-27 06:02:00,38.1,35.7,28.73,WSW,254,6.7,13.8,91,0.00,CLR,,0.00,WeatherDisplay:10.37,2013-01-27 06:02:00,
2013-01-27 06:07:00,38.2,35.8,28.73,WSW,243,7.0,15.0,91,0.00,CLR,,0.00,WeatherDisplay:10.37,2013-01-27 06:07:00,
2013-01-27 06:12:00,38.1,35.4,28.73,South,184,7.5,15.0,90,0.00,CLR,,0.00,WeatherDisplay:10.37,2013-01-27 06:12:00,
2013-01-27 06:17:00,38.2,35.5,28.74,SW,236,5.3,8.1,90,0.00,CLR,,0.00,WeatherDisplay:10.37,2013-01-27 06:17:00,
2013-01-27 06:22:00,38.0,35.3,28.74,WNW,294,3.5,11.5,90,0.00,CLR,,0.00,WeatherDisplay:10.37,2013-01-27 06:22:00,
2013-01-27 06:27:00,37.9,35.2,28.74,ESE,116,4.9,7.0,90,0.00,CLR,,0.00,WeatherDisplay:10.37,2013-01-27 06:27:00,
2013-01-27 06:32:00,37.9,35.2,28.74,WSW,255,2.2,4.6,90,0.00,CLR,,0.00,WeatherDisplay:10.37,2013-01-27 06:32:00,
2013-01-27 06:37:00,37.9,35.5,28.75,West,279,4.2,9.2,91,0.00,CLR,,0.00,WeatherDisplay:10.37,2013-01-27 06:37:00,
2013-01-27 06:42:00,38.0,35.6,28.76,North,355,4.9,10.4,91,0.00,CLR,,0.00,WeatherDisplay:10.37,2013-01-27 06:42:00,
2013-01-27 06:47:00,37.9,35.8,28.77,WNW,285,8.4,13.8,92,0.01,RA,,0.01,WeatherDisplay:10.37,2013-01-27 06:47:00,
2013-01-27 06:52:00,37.6,35.5,28.77,ESE,111,6.7,11.5,92,0.01,RA,,0.01,WeatherDisplay:10.37,2013-01-27 06:52:00,
2013-01-27 06:57:00,37.4,35.6,28.76,NW,308,5.4,9.2,93,0.01,,,0.01,WeatherDisplay:10.37,2013-01-27 06:57:00,
2013-01-27 07:02:00,37.2,35.4,28.76,NNW,337,4.9,9.2,93,0.01,CLR,,0.01,WeatherDisplay:10.37,2013-01-27 07:02:00,
2013-01-27 07:07:00,37.1,35.0,28.75,WSW,254,4.2,5.8,92,0.01,CLR,,0.01,WeatherDisplay:10.37,2013-01-27 07:07:00,
2013-01-27 07:13:00,37.1,34.7,28.76,WSW,247,4.5,8.0,91,0.01,CLR,,0.01,WeatherDisplay:10.37,2013-01-27 07:13:00,
2013-01-27 07:18:00,37.0,34.6,28.76,SW,222,4.5,9.2,91,0.01,CLR,,0.01,WeatherDisplay:10.37,2013-01-27 07:18:00,
2013-01-27 07:23:00,37.0,34.6,28.77,West,279,2.6,4.0,91,0.01,CLR,,0.01,WeatherDisplay:10.37,2013-01-27 07:23:00,
2013-01-27 07:28:00,37.0,34.9,28.77,SW,218,4.0,6.9,92,0.01,CLR,,0.01,WeatherDisplay:10.37,2013-01-27 07:28:00,
2013-01-27 07:33:00,36.9,34.8,28.76,SW,219,4.5,8.1,92,0.01,CLR,,0.01,WeatherDisplay:10.37,2013-01-27 07:33:00,
2013-01-27 07:38:00,36.9,35.1,28.77,SSW,205,7.3,15.0,93,0.01,CLR,,0.01,WeatherDisplay:10.37,2013-01-27 07:38:00,
2013-01-27 07:43:00,37.3,35.2,28.77,NNW,340,4.3,8.1,92,0.01,CLR,,0.01,WeatherDisplay:10.37,2013-01-27 07:43:00,
2013-01-27 07:48:00,37.5,35.1,28.77,WNW,298,6.8,11.5,91,0.00,CLR,,0.01,WeatherDisplay:10.37,2013-01-27 07:48:00,
2013-01-27 07:53:00,37.4,35.0,28.77,SW,226,8.8,15.0,91,0.00,CLR,,0.01,WeatherDisplay:10.37,2013-01-27 07:53:00,
2013-01-27 07:58:00,37.4,34.7,28.78,WNW,282,5.4,10.4,90,0.00,CLR,,0.01,WeatherDisplay:10.37,2013-01-27 07:58:00,
2013-01-27 08:03:00,37.4,34.7,28.78,WSW,245,2.5,8.1,90,0.00,CLR,,0.01,WeatherDisplay:10.37,2013-01-27 08:03:00,
2013-01-27 08:08:00,37.3,34.6,28.78,West,260,2.1,4.6,90,0.00,CLR,,0.01,WeatherDisplay:10.37,2013-01-27 08:08:00,
2013-01-27 08:13:00,37.3,34.6,28.78,SW,223,7.5,15.0,90,0.00,CLR,,0.01,WeatherDisplay:10.37,2013-01-27 08:13:00,
2013-01-27 08:18:00,37.4,34.7,28.78,SW,231,7.8,12.7,90,0.00,CLR,,0.01,WeatherDisplay:10.37,2013-01-27 08:18:00,
2013-01-27 08:23:00,37.5,34.6,28.78,SW,228,5.0,6.9,89,0.00,CLR,,0.01,WeatherDisplay:10.37,2013-01-27 08:23:00,
2013-01-27 08:28:00,37.5,34.6,28.78,WSW,237,7.4,10.4,89,0.00,CLR,,0.01,WeatherDisplay:10.37,2013-01-27 08:28:00,
2013-01-27 08:33:00,37.5,34.8,28.78,West,277,6.9,16.1,90,0.00,CLR,,0.01,WeatherDisplay:10.37,2013-01-27 08:33:00,
2013-01-27 08:38:00,37.5,34.8,28.78,WNW,294,5.8,9.2,90,0.00,CLR,,0.01,WeatherDisplay:10.37,2013-01-27 08:38:00,
2013-01-27 08:43:00,37.5,34.8,28.78,SW,215,4.0,9.0,90,0.00,CLR,,0.01,WeatherDisplay:10.37,2013-01-27 08:43:00,
2013-01-27 08:48:00,37.3,34.6,28.78,SW,226,4.3,9.2,90,0.00,CLR,,0.01,WeatherDisplay:10.37,2013-01-27 08:48:00,
2013-01-27 08:53:00,37.4,34.7,28.78,SW,234,5.1,11.5,90,0.00,CLR,,0.01,WeatherDisplay:10.37,2013-01-27 08:53:00,
2013-01-27 08:58:00,37.7,35.0,28.78,South,175,6.6,13.8,90,0.00,CLR,,0.01,WeatherDisplay:10.37,2013-01-27 08:58:00,
2013-01-27 09:03:00,38.0,35.3,28.78,SW,226,6.3,11.5,90,0.00,CLR,,0.01,WeatherDisplay:10.37,2013-01-27 09:03:00,
2013-01-27 09:08:00,38.0,35.3,28.79,SSW,211,3.5,6.9,90,0.00,CLR,,0.01,WeatherDisplay:10.37,2013-01-27 09:08:00,
2013-01-27 09:13:00,38.0,35.3,28.79,SW,233,8.1,12.7,90,0.00,CLR,,0.01,WeatherDisplay:10.37,2013-01-27 09:13:00,
2013-01-27 09:18:00,38.2,35.5,28.79,SSW,194,8.0,11.5,90,0.00,CLR,,0.01,WeatherDisplay:10.37,2013-01-27 09:18:00,
2013-01-27 09:23:00,38.2,35.5,28.80,SSW,193,3.3,6.9,90,0.00,CLR,,0.01,WeatherDisplay:10.37,2013-01-27 09:23:00,
2013-01-27 09:28:00,38.2,35.5,28.80,WSW,247,5.9,8.1,90,0.00,CLR,,0.01,WeatherDisplay:10.37,2013-01-27 09:28:00,
2013-01-27 09:33:00,38.7,35.7,28.79,SW,235,5.6,12.7,89,0.00,CLR,,0.01,WeatherDisplay:10.37,2013-01-27 09:33:00,
2013-01-27 09:38:00,39.0,36.0,28.79,WSW,246,6.4,11.5,89,0.00,CLR,,0.01,WeatherDisplay:10.37,2013-01-27 09:38:00,
2013-01-27 09:43:00,39.3,36.3,28.79,SW,233,3.7,6.0,89,0.00,CLR,,0.01,WeatherDisplay:10.37,2013-01-27 09:43:00,
2013-01-27 09:48:00,39.4,36.1,28.80,SSW,211,8.4,17.3,88,0.00,CLR,,0.01,WeatherDisplay:10.37,2013-01-27 09:48:00,
2013-01-27 09:53:00,39.2,35.9,28.81,SW,230,2.8,11.5,88,0.00,CLR,,0.01,WeatherDisplay:10.37,2013-01-27 09:53:00,
2013-01-27 09:58:00,39.1,36.1,28.81,SSW,213,2.9,5.8,89,0.00,CLR,,0.01,WeatherDisplay:10.37,2013-01-27 09:58:00,
2013-01-27 10:03:00,38.9,36.2,28.82,West,281,2.8,3.5,90,0.00,CLR,,0.01,WeatherDisplay:10.37,2013-01-27 10:03:00,
2013-01-27 10:08:00,38.9,36.2,28.83,WSW,245,2.0,3.5,90,0.00,CLR,,0.01,WeatherDisplay:10.37,2013-01-27 10:08:00,
2013-01-27 10:13:00,38.8,36.4,28.83,WSW,256,1.5,3.5,91,0.00,CLR,,0.01,WeatherDisplay:10.37,2013-01-27 10:13:00,
2013-01-27 10:18:00,38.7,36.3,28.83,NNW,337,1.7,3.5,91,0.00,CLR,,0.01,WeatherDisplay:10.37,2013-01-27 10:18:00,
2013-01-27 10:23:00,38.5,36.1,28.82,SW,221,1.6,3.5,91,0.00,CLR,,0.01,WeatherDisplay:10.37,2013-01-27 10:23:00,
2013-01-27 10:28:00,38.1,36.0,28.82,SSW,204,1.9,4.6,92,0.00,CLR,,0.01,WeatherDisplay:10.37,2013-01-27 10:28:00,
2013-01-27 10:33:00,38.0,36.2,28.82,SW,231,3.7,10.4,93,0.00,CLR,,0.01,WeatherDisplay:10.37,2013-01-27 10:33:00,
2013-01-27 10:38:00,38.0,36.2,28.82,WSW,239,2.8,9.2,93,0.00,CLR,,0.01,WeatherDisplay:10.37,2013-01-27 10:38:00,
2013-01-27 10:43:00,38.0,36.2,28.83,SW,229,3.5,10.4,93,0.00,CLR,,0.01,WeatherDisplay:10.37,2013-01-27 10:43:00,
2013-01-27 10:48:00,38.2,36.4,28.82,SSW,194,6.2,11.5,93,0.00,CLR,,0.01,WeatherDisplay:10.37,2013-01-27 10:48:00,
2013-01-27 10:53:00,38.3,36.5,28.82,SW,232,5.5,8.0,93,0.00,CLR,,0.01,WeatherDisplay:10.37,2013-01-27 10:53:00,
2013-01-27 10:58:00,38.4,36.6,28.82,SSE,156,4.9,11.0,93,0.00,CLR,,0.01,WeatherDisplay:10.37,2013-01-27 10:58:00,
2013-01-27 11:03:00,38.6,36.8,28.83,West,266,8.4,16.1,93,0.00,CLR,,0.01,WeatherDisplay:10.37,2013-01-27 11:03:00,
2013-01-27 11:08:00,38.7,36.6,28.83,SSW,205,4.8,10.4,92,0.00,CLR,,0.01,WeatherDisplay:10.37,2013-01-27 11:08:00,
2013-01-27 11:13:00,38.6,36.5,28.83,SW,221,3.5,12.0,92,0.00,CLR,,0.01,WeatherDisplay:10.37,2013-01-27 11:13:00,
2013-01-27 11:18:00,38.5,36.7,28.83,SSW,213,4.8,11.5,93,0.00,CLR,,0.01,WeatherDisplay:10.37,2013-01-27 11:18:00,
2013-01-27 11:23:00,38.4,36.6,28.83,SSW,209,4.5,12.7,93,0.00,CLR,,0.01,WeatherDisplay:10.37,2013-01-27 11:23:00,
2013-01-27 11:28:00,38.4,36.6,28.83,SW,232,4.1,8.0,93,0.00,CLR,,0.01,WeatherDisplay:10.37,2013-01-27 11:28:00,
2013-01-27 11:33:00,38.6,36.8,28.83,WSW,248,6.6,10.4,93,0.00,CLR,,0.01,WeatherDisplay:10.37,2013-01-27 11:33:00,
2013-01-27 11:38:00,38.9,37.0,28.83,WSW,252,5.8,11.5,93,0.00,CLR,,0.01,WeatherDisplay:10.37,2013-01-27 11:38:00,
2013-01-27 11:43:00,39.1,37.2,28.83,NNW,338,4.7,6.9,93,0.00,CLR,,0.01,WeatherDisplay:10.37,2013-01-27 11:43:00,
2013-01-27 11:48:00,39.2,37.1,28.84,WSW,238,4.2,9.2,92,0.00,CLR,,0.01,WeatherDisplay:10.37,2013-01-27 11:48:00,
2013-01-27 11:53:00,39.5,37.4,28.84,SW,225,6.1,11.5,92,0.00,CLR,,0.01,WeatherDisplay:10.37,2013-01-27 11:53:00,
2013-01-27 11:58:00,39.9,37.5,28.85,West,271,8.3,16.1,91,0.00,CLR,,0.01,WeatherDisplay:10.37,2013-01-27 11:58:00,
2013-01-27 12:03:00,40.0,37.6,28.86,West,275,8.9,15.0,91,0.00,CLR,,0.01,WeatherDisplay:10.37,2013-01-27 12:03:00,
2013-01-27 12:08:00,39.8,37.4,28.87,NNW,344,8.0,12.7,91,0.00,CLR,,0.01,WeatherDisplay:10.37,2013-01-27 12:08:00,
2013-01-27 12:13:00,39.3,37.2,28.86,WSW,250,7.5,16.0,92,0.00,CLR,,0.01,WeatherDisplay:10.37,2013-01-27 12:13:00,
2013-01-27 12:18:00,39.1,37.2,28.85,NW,325,7.0,11.5,93,0.00,CLR,,0.01,WeatherDisplay:10.37,2013-01-27 12:18:00,
2013-01-27 12:23:00,39.0,37.1,28.85,WSW,246,6.5,15.0,93,0.00,CLR,,0.01,WeatherDisplay:10.37,2013-01-27 12:23:00,
2013-01-27 12:28:00,39.1,37.2,28.85,WSW,241,6.3,12.0,93,0.00,CLR,,0.01,WeatherDisplay:10.37,2013-01-27 12:28:00,
2013-01-27 12:33:00,39.3,37.4,28.85,WNW,289,4.5,11.0,93,0.00,CLR,,0.01,WeatherDisplay:10.37,2013-01-27 12:33:00,
2013-01-27 12:38:00,39.6,37.7,28.85,WSW,246,3.6,5.8,93,0.00,CLR,,0.01,WeatherDisplay:10.37,2013-01-27 12:38:00,
2013-01-27 12:43:00,39.8,37.9,28.86,West,273,3.7,4.6,93,0.00,CLR,,0.01,WeatherDisplay:10.37,2013-01-27 12:43:00,
2013-01-27 12:48:00,39.9,37.8,28.86,SSW,209,6.3,13.8,92,0.00,CLR,,0.01,WeatherDisplay:10.37,2013-01-27 12:48:00,
2013-01-27 12:53:00,39.9,37.8,28.86,SW,225,7.1,11.5,92,0.00,CLR,,0.01,WeatherDisplay:10.37,2013-01-27 12:53:00,
2013-01-27 12:58:00,39.8,37.7,28.87,WSW,242,4.2,6.9,92,0.00,CLR,,0.01,WeatherDisplay:10.37,2013-01-27 12:58:00,
2013-01-27 13:03:00,39.7,37.3,28.87,WSW,250,8.8,13.8,91,0.00,CLR,,0.01,WeatherDisplay:10.37,2013-01-27 13:03:00,
2013-01-27 13:08:00,39.6,37.2,28.87,SW,227,6.7,11.5,91,0.00,CLR,,0.01,WeatherDisplay:10.37,2013-01-27 13:08:00,
2013-01-27 13:13:00,39.5,37.1,28.87,SW,233,2.9,5.8,91,0.00,CLR,,0.01,WeatherDisplay:10.37,2013-01-27 13:13:00,
2013-01-27 13:18:00,39.5,37.1,28.87,South,190,5.3,6.9,91,0.00,CLR,,0.01,WeatherDisplay:10.37,2013-01-27 13:18:00,
2013-01-27 13:23:00,39.5,37.1,28.88,North,360,4.6,8.1,91,0.00,CLR,,0.01,WeatherDisplay:10.37,2013-01-27 13:23:00,
2013-01-27 13:28:00,39.5,37.1,28.87,WSW,254,6.7,11.5,91,0.00,CLR,,0.01,WeatherDisplay:10.37,2013-01-27 13:28:00,
2013-01-27 13:33:00,39.3,36.9,28.88,SW,225,8.3,17.3,91,0.00,CLR,,0.01,WeatherDisplay:10.37,2013-01-27 13:33:00,
2013-01-27 13:38:00,39.2,36.8,28.89,NW,317,8.1,13.8,91,0.00,CLR,,0.01,WeatherDisplay:10.37,2013-01-27 13:38:00,
2013-01-27 13:43:00,39.0,36.9,28.88,SW,229,9.9,19.6,92,0.00,CLR,,0.01,WeatherDisplay:10.37,2013-01-27 13:43:00,
2013-01-27 13:48:00,38.9,36.8,28.88,WSW,243,9.6,16.1,92,0.00,CLR,,0.01,WeatherDisplay:10.37,2013-01-27 13:48:00,
2013-01-27 13:53:00,39.0,36.9,28.88,WNW,292,6.3,11.5,92,0.00,CLR,,0.01,WeatherDisplay:10.37,2013-01-27 13:53:00,
2013-01-27 13:58:00,39.1,37.0,28.88,WSW,240,6.7,11.5,92,0.00,CLR,,0.01,WeatherDisplay:10.37,2013-01-27 13:58:00,
2013-01-27 14:03:00,39.3,36.9,28.88,WSW,238,8.3,12.0,91,0.00,CLR,,0.01,WeatherDisplay:10.37,2013-01-27 14:03:00,
2013-01-27 14:08:00,39.7,37.0,28.89,West,279,7.6,13.8,90,0.00,CLR,,0.01,WeatherDisplay:10.37,2013-01-27 14:08:00,
2013-01-27 14:13:00,39.8,37.1,28.89,NW,308,6.1,10.4,90,0.00,CLR,,0.01,WeatherDisplay:10.37,2013-01-27 14:13:00,
2013-01-27 14:18:00,40.0,37.6,28.88,WSW,244,8.0,16.1,91,0.00,CLR,,0.01,WeatherDisplay:10.37,2013-01-27 14:18:00,
2013-01-27 14:23:00,40.2,37.8,28.89,WNW,297,6.5,11.5,91,0.00,CLR,,0.01,WeatherDisplay:10.37,2013-01-27 14:23:00,
2013-01-27 14:28:00,40.1,37.4,28.88,West,259,5.7,8.1,90,0.00,CLR,,0.01,WeatherDisplay:10.37,2013-01-27 14:28:00,
2013-01-27 14:33:00,39.9,37.2,28.88,SW,220,5.0,15.0,90,0.00,CLR,,0.01,WeatherDisplay:10.37,2013-01-27 14:33:00,
2013-01-27 14:38:00,39.7,37.0,28.89,WSW,242,5.9,11.5,90,0.00,CLR,,0.01,WeatherDisplay:10.37,2013-01-27 14:38:00,
2013-01-27 14:43:00,39.6,36.9,28.89,SSW,209,5.6,10.4,90,0.00,CLR,,0.01,WeatherDisplay:10.37,2013-01-27 14:43:00,
2013-01-27 14:48:00,39.6,37.2,28.90,WSW,240,4.6,11.5,91,0.00,CLR,,0.01,WeatherDisplay:10.37,2013-01-27 14:48:00,
2013-01-27 14:53:00,39.8,37.4,28.90,SW,229,4.9,6.9,91,0.00,CLR,,0.01,WeatherDisplay:10.37,2013-01-27 14:53:00,
2013-01-27 14:58:00,40.1,37.4,28.90,WSW,246,6.5,8.1,90,0.00,CLR,,0.01,WeatherDisplay:10.37,2013-01-27 14:58:00,
2013-01-27 15:03:00,40.1,37.4,28.90,WNW,299,8.0,16.1,90,0.00,CLR,,0.01,WeatherDisplay:10.37,2013-01-27 15:03:00,
2013-01-27 15:08:00,40.0,37.0,28.90,West,267,5.7,11.5,89,0.00,CLR,,0.01,WeatherDisplay:10.37,2013-01-27 15:08:00,
2013-01-27 15:13:00,40.0,37.0,28.91,NE,44,7.3,19.6,89,0.00,CLR,,0.01,WeatherDisplay:10.37,2013-01-27 15:13:00,
2013-01-27 15:18:00,39.9,36.9,28.91,North,355,7.0,11.5,89,0.00,CLR,,0.01,WeatherDisplay:10.37,2013-01-27 15:18:00,
2013-01-27 15:23:00,39.9,36.9,28.92,East,93,6.9,12.7,89,0.00,CLR,,0.01,WeatherDisplay:10.37,2013-01-27 15:23:00,
2013-01-27 15:28:00,39.5,36.8,28.92,WSW,238,6.5,17.3,90,0.00,CLR,,0.01,WeatherDisplay:10.37,2013-01-27 15:28:00,
2013-01-27 15:33:00,39.2,36.8,28.92,SW,227,6.0,9.2,91,0.00,CLR,,0.01,WeatherDisplay:10.37,2013-01-27 15:33:00,
2013-01-27 15:38:00,39.2,37.1,28.92,North,351,6.0,11.5,92,0.00,CLR,,0.01,WeatherDisplay:10.37,2013-01-27 15:38:00,
2013-01-27 15:43:00,39.3,37.2,28.92,SW,236,5.5,11.5,92,0.00,CLR,,0.01,WeatherDisplay:10.37,2013-01-27 15:43:00,
2013-01-27 15:48:00,39.2,37.1,28.92,WSW,255,3.9,5.8,92,0.00,CLR,,0.01,WeatherDisplay:10.37,2013-01-27 15:48:00,
2013-01-27 15:53:00,39.2,37.1,28.92,WNW,286,5.4,9.2,92,0.00,CLR,,0.01,WeatherDisplay:10.37,2013-01-27 15:53:00,
2013-01-27 15:58:00,39.1,37.0,28.92,SW,232,4.9,9.2,92,0.00,CLR,,0.01,WeatherDisplay:10.37,2013-01-27 15:58:00,
2013-01-27 16:03:00,39.2,37.1,28.92,West,261,3.0,8.1,92,0.00,CLR,,0.01,WeatherDisplay:10.37,2013-01-27 16:03:00,
2013-01-27 16:08:00,39.2,37.1,28.92,WSW,237,5.1,8.1,92,0.00,CLR,,0.01,WeatherDisplay:10.37,2013-01-27 16:08:00,
2013-01-27 16:13:00,39.3,37.2,28.92,NW,321,3.1,4.6,92,0.00,CLR,,0.01,WeatherDisplay:10.37,2013-01-27 16:13:00,
2013-01-27 16:18:00,39.4,37.0,28.92,SW,216,4.6,5.8,91,0.00,CLR,,0.01,WeatherDisplay:10.37,2013-01-27 16:18:00,
2013-01-27 16:23:00,39.4,37.0,28.92,West,278,5.8,11.5,91,0.00,CLR,,0.01,WeatherDisplay:10.37,2013-01-27 16:23:00,
2013-01-27 16:28:00,39.3,36.6,28.92,SSW,195,5.7,16.1,90,0.00,CLR,,0.01,WeatherDisplay:10.37,2013-01-27 16:28:00,
2013-01-27 16:33:00,39.3,36.6,28.93,SW,219,5.5,11.5,90,0.00,CLR,,0.01,WeatherDisplay:10.37,2013-01-27 16:33:00,
2013-01-27 16:38:00,39.2,36.5,28.93,WSW,252,5.1,9.2,90,0.00,CLR,,0.01,WeatherDisplay:10.37,2013-01-27 16:38:00,
2013-01-27 16:43:00,39.2,36.5,28.94,NW,306,4.6,9.2,90,0.00,CLR,,0.01,WeatherDisplay:10.37,2013-01-27 16:43:00,
2013-01-27 16:48:00,39.2,36.5,28.94,SW,215,3.2,5.8,90,0.00,CLR,,0.01,WeatherDisplay:10.37,2013-01-27 16:48:00,
2013-01-27 16:53:00,39.2,36.5,28.94,WSW,256,4.2,11.5,90,0.00,CLR,,0.01,WeatherDisplay:10.37,2013-01-27 16:53:00,
2013-01-27 16:58:00,39.2,36.5,28.94,WSW,242,2.9,8.1,90,0.00,CLR,,0.01,WeatherDisplay:10.37,2013-01-27 16:58:00,
2013-01-27 17:03:00,39.1,36.4,28.94,SW,216,5.3,11.5,90,0.00,CLR,,0.01,WeatherDisplay:10.37,2013-01-27 17:03:00,
2013-01-27 17:08:00,39.1,36.4,28.95,WSW,240,3.4,11.5,90,0.00,CLR,,0.01,WeatherDisplay:10.37,2013-01-27 17:08:00,
2013-01-27 17:13:00,39.0,36.0,28.95,WSW,248,5.7,11.5,89,0.00,CLR,,0.01,WeatherDisplay:10.37,2013-01-27 17:13:00,
2013-01-27 17:18:00,38.7,35.5,28.95,SSW,213,5.1,11.5,88,0.00,CLR,,0.01,WeatherDisplay:10.37,2013-01-27 17:18:00,
2013-01-27 17:23:00,38.5,35.3,28.95,WNW,285,5.4,9.2,88,0.00,CLR,,0.01,WeatherDisplay:10.37,2013-01-27 17:23:00,
2013-01-27 17:28:00,38.3,34.8,28.95,SW,222,5.3,11.5,87,0.00,CLR,,0.01,WeatherDisplay:10.37,2013-01-27 17:28:00,
2013-01-27 17:33:00,38.2,34.4,28.95,SW,216,5.2,12.0,86,0.00,CLR,,0.01,WeatherDisplay:10.37,2013-01-27 17:33:00,
2013-01-27 17:38:00,38.0,34.5,28.95,SW,229,6.1,12.7,87,0.00,CLR,,0.01,WeatherDisplay:10.37,2013-01-27 17:38:00,
2013-01-27 17:43:00,37.9,34.7,28.96,SSW,198,6.5,11.5,88,0.00,CLR,,0.01,WeatherDisplay:10.37,2013-01-27 17:43:00,
2013-01-27 17:48:00,37.9,34.7,28.96,SW,222,8.4,19.6,88,0.00,CLR,,0.01,WeatherDisplay:10.37,2013-01-27 17:48:00,
2013-01-27 17:53:00,37.9,34.9,28.96,West,259,6.9,11.5,89,0.00,CLR,,0.01,WeatherDisplay:10.37,2013-01-27 17:53:00,
2013-01-27 17:58:00,37.9,34.9,28.96,SW,228,3.8,10.0,89,0.00,CLR,,0.01,WeatherDisplay:10.37,2013-01-27 17:58:00,
2013-01-27 18:03:00,37.8,35.1,28.97,WSW,242,4.0,8.1,90,0.00,CLR,,0.01,WeatherDisplay:10.37,2013-01-27 18:03:00,
2013-01-27 18:08:00,37.9,35.2,28.97,SW,219,6.5,11.5,90,0.00,CLR,,0.01,WeatherDisplay:10.37,2013-01-27 18:08:00,
2013-01-27 18:13:00,38.0,35.3,28.97,SW,226,4.1,8.0,90,0.00,CLR,,0.01,WeatherDisplay:10.37,2013-01-27 18:13:00,
2013-01-27 18:18:00,38.0,35.0,28.97,SW,229,4.3,12.7,89,0.00,CLR,,0.01,WeatherDisplay:10.37,2013-01-27 18:18:00,
2013-01-27 18:23:00,37.9,35.2,28.97,WSW,240,3.7,7.0,90,0.00,CLR,,0.01,WeatherDisplay:10.37,2013-01-27 18:23:00,
2013-01-27 18:28:00,37.8,35.1,28.97,WSW,244,4.5,6.0,90,0.00,CLR,,0.01,WeatherDisplay:10.37,2013-01-27 18:28:00,
2013-01-27 18:33:00,37.8,35.1,28.97,West,264,5.3,9.2,90,0.00,CLR,,0.01,WeatherDisplay:10.37,2013-01-27 18:33:00,
2013-01-27 18:38:00,37.8,34.8,28.98,SW,225,6.2,15.0,89,0.00,CLR,,0.01,WeatherDisplay:10.37,2013-01-27 18:38:00,
2013-01-27 18:43:00,37.9,34.9,28.98,WSW,248,3.5,4.6,89,0.00,CLR,,0.01,WeatherDisplay:10.37,2013-01-27 18:43:00,
2013-01-27 18:48:00,37.8,35.1,28.98,SW,229,4.7,8.1,90,0.00,CLR,,0.01,WeatherDisplay:10.37,2013-01-27 18:48:00,
2013-01-27 18:53:00,37.9,35.2,28.99,WNW,288,5.3,12.7,90,0.00,CLR,,0.01,WeatherDisplay:10.37,2013-01-27 18:53:00,
2013-01-27 18:58:00,37.9,35.2,28.99,SW,235,6.7,19.6,90,0.00,CLR,,0.01,WeatherDisplay:10.37,2013-01-27 18:58:00,
2013-01-27 19:03:00,38.0,35.0,28.99,WNW,284,7.0,12.0,89,0.00,CLR,,0.01,WeatherDisplay:10.37,2013-01-27 19:03:00,
2013-01-27 19:08:00,38.3,35.6,29.01,WNW,292,8.8,13.8,90,0.00,CLR,,0.01,WeatherDisplay:10.37,2013-01-27 19:08:00,
2013-01-27 19:13:00,38.3,35.6,29.00,WSW,237,6.2,11.5,90,0.00,CLR,,0.01,WeatherDisplay:10.37,2013-01-27 19:13:00,
2013-01-27 19:18:00,38.1,35.7,29.01,SW,228,5.2,13.8,91,0.00,CLR,,0.01,WeatherDisplay:10.37,2013-01-27 19:18:00,
2013-01-27 19:23:00,38.0,35.6,29.01,NNW,339,5.4,12.7,91,0.00,CLR,,0.01,WeatherDisplay:10.37,2013-01-27 19:23:00,
2013-01-27 19:28:00,37.8,35.4,29.02,SW,234,5.3,10.4,91,0.00,CLR,,0.01,WeatherDisplay:10.37,2013-01-27 19:28:00,
2013-01-27 19:33:00,37.4,35.3,29.02,NW,310,6.9,16.1,92,0.00,CLR,,0.01,WeatherDisplay:10.37,2013-01-27 19:33:00,
2013-01-27 19:38:00,36.9,34.8,29.02,WNW,302,5.6,9.2,92,0.00,CLR,,0.01,WeatherDisplay:10.37,2013-01-27 19:38:00,
2013-01-27 19:43:00,36.4,34.6,29.02,WSW,253,3.5,8.1,93,0.00,CLR,,0.01,WeatherDisplay:10.37,2013-01-27 19:43:00,
2013-01-27 19:48:00,35.9,34.1,29.02,West,272,5.0,9.2,93,0.00,CLR,,0.01,WeatherDisplay:10.37,2013-01-27 19:48:00,
2013-01-27 19:53:00,35.9,34.3,29.01,WSW,246,6.4,8.1,94,0.00,CLR,,0.01,WeatherDisplay:10.37,2013-01-27 19:53:00,
2013-01-27 19:58:00,36.1,34.5,29.01,WNW,295,4.4,11.5,94,0.00,CLR,,0.01,WeatherDisplay:10.37,2013-01-27 19:58:00,
2013-01-27 20:03:00,36.4,34.6,29.00,WNW,300,6.0,12.7,93,0.00,CLR,,0.01,WeatherDisplay:10.37,2013-01-27 20:03:00,
2013-01-27 20:08:00,36.6,34.5,29.00,NNW,347,4.9,10.4,92,0.00,CLR,,0.01,WeatherDisplay:10.37,2013-01-27 20:08:00,
2013-01-27 20:13:00,36.7,34.3,29.00,SSW,213,2.8,5.8,91,0.00,CLR,,0.01,WeatherDisplay:10.37,2013-01-27 20:13:00,
2013-01-27 20:18:00,36.7,34.3,29.01,WSW,247,3.7,6.9,91,0.00,CLR,,0.01,WeatherDisplay:10.37,2013-01-27 20:18:00,
2013-01-27 20:23:00,36.7,34.3,29.01,WNW,294,6.6,11.5,91,0.00,CLR,,0.01,WeatherDisplay:10.37,2013-01-27 20:23:00,
2013-01-27 20:28:00,36.7,34.3,29.01,SSW,213,6.3,11.5,91,0.00,CLR,,0.01,WeatherDisplay:10.37,2013-01-27 20:28:00,
2013-01-27 20:33:00,36.8,34.4,29.02,SW,217,7.2,15.0,91,0.00,CLR,,0.01,WeatherDisplay:10.37,2013-01-27 20:33:00,
2013-01-27 20:38:00,36.9,34.5,29.02,SW,219,4.8,10.4,91,0.00,CLR,,0.01,WeatherDisplay:10.37,2013-01-27 20:38:00,
2013-01-27 20:43:00,36.8,34.4,29.02,SSW,210,5.6,11.5,91,0.00,CLR,,0.01,WeatherDisplay:10.37,2013-01-27 20:43:00,
2013-01-27 20:48:00,36.9,34.5,29.02,SW,218,3.5,6.9,91,0.00,CLR,,0.01,WeatherDisplay:10.37,2013-01-27 20:48:00,
2013-01-27 20:53:00,37.0,34.6,29.02,SW,236,4.6,8.1,91,0.00,CLR,,0.01,WeatherDisplay:10.37,2013-01-27 20:53:00,
2013-01-27 20:58:00,37.0,34.6,29.02,SW,236,5.8,10.4,91,0.00,CLR,,0.01,WeatherDisplay:10.37,2013-01-27 20:58:00,
2013-01-27 21:03:00,37.2,34.8,29.02,SW,222,6.6,13.0,91,0.00,CLR,,0.01,WeatherDisplay:10.37,2013-01-27 21:03:00,
2013-01-27 21:08:00,37.4,35.0,29.03,WNW,285,4.8,11.5,91,0.00,CLR,,0.01,WeatherDisplay:10.37,2013-01-27 21:08:00,
2013-01-27 21:13:00,37.7,35.3,29.04,SW,232,4.5,11.5,91,0.00,CLR,,0.01,WeatherDisplay:10.37,2013-01-27 21:13:00,
2013-01-27 21:18:00,37.6,35.2,29.04,SW,236,4.8,8.1,91,0.00,CLR,,0.01,WeatherDisplay:10.37,2013-01-27 21:18:00,
2013-01-27 21:23:00,37.6,35.5,29.04,SE,135,5.4,10.4,92,0.00,CLR,,0.01,WeatherDisplay:10.37,2013-01-27 21:23:00,
2013-01-27 21:28:00,37.7,35.6,29.04,WSW,242,5.8,9.2,92,0.00,CLR,,0.01,WeatherDisplay:10.37,2013-01-27 21:28:00,
2013-01-27 21:33:00,37.6,35.5,29.03,WNW,290,5.3,9.2,92,0.00,CLR,,0.01,WeatherDisplay:10.37,2013-01-27 21:33:00,
2013-01-27 21:38:00,37.3,35.2,29.03,West,269,5.7,10.4,92,0.00,CLR,,0.01,WeatherDisplay:10.37,2013-01-27 21:38:00,
2013-01-27 21:43:00,37.1,35.0,29.04,NNE,25,3.5,5.8,92,0.00,CLR,,0.01,WeatherDisplay:10.37,2013-01-27 21:43:00,
2013-01-27 21:48:00,37.1,35.0,29.04,WNW,296,5.4,10.4,92,0.00,CLR,,0.01,WeatherDisplay:10.37,2013-01-27 21:48:00,
2013-01-27 21:53:00,37.2,35.1,29.04,SW,229,4.7,7.0,92,0.00,CLR,,0.01,WeatherDisplay:10.37,2013-01-27 21:53:00,
2013-01-27 21:58:00,37.4,35.0,29.04,SW,218,5.1,16.1,91,0.00,CLR,,0.01,WeatherDisplay:10.37,2013-01-27 21:58:00,
2013-01-27 22:03:00,37.5,35.1,29.05,SW,219,5.4,18.0,91,0.00,CLR,,0.01,WeatherDisplay:10.37,2013-01-27 22:03:00,
2013-01-27 22:08:00,37.7,35.3,29.05,WSW,244,4.1,9.2,91,0.00,CLR,,0.01,WeatherDisplay:10.37,2013-01-27 22:08:00,
2013-01-27 22:13:00,37.8,35.1,29.05,West,272,5.4,9.2,90,0.00,CLR,,0.01,WeatherDisplay:10.37,2013-01-27 22:13:00,
2013-01-27 22:18:00,37.7,35.0,29.06,WSW,241,12.8,15.0,90,0.00,CLR,,0.01,WeatherDisplay:10.37,2013-01-27 22:18:00,
2013-01-27 22:23:00,37.8,35.1,29.06,West,278,3.1,4.6,90,0.00,CLR,,0.01,WeatherDisplay:10.37,2013-01-27 22:23:00,
2013-01-27 22:28:00,38.0,35.3,29.06,SSW,192,3.8,9.2,90,0.00,CLR,,0.01,WeatherDisplay:10.37,2013-01-27 22:28:00,
2013-01-27 22:33:00,38.2,35.5,29.06,SSW,194,7.6,16.1,90,0.01,RA,,0.02,WeatherDisplay:10.37,2013-01-27 22:33:00,
2013-01-27 22:38:00,38.1,35.1,29.07,North,355,3.3,8.1,89,0.01,RA,,0.02,WeatherDisplay:10.37,2013-01-27 22:38:00,
2013-01-27 22:43:00,38.3,35.3,29.07,SW,229,6.7,13.8,89,0.01,CLR,,0.02,WeatherDisplay:10.37,2013-01-27 22:43:00,
2013-01-27 22:48:00,38.3,35.3,29.07,NW,318,4.0,9.2,89,0.01,CLR,,0.02,WeatherDisplay:10.37,2013-01-27 22:48:00,
2013-01-27 22:53:00,38.1,35.1,29.06,SSW,205,4.9,8.1,89,0.01,CLR,,0.02,WeatherDisplay:10.37,2013-01-27 22:53:00,
2013-01-27 22:58:00,38.0,35.3,29.07,SW,229,7.2,17.3,90,0.01,CLR,,0.02,WeatherDisplay:10.37,2013-01-27 22:58:00,
2013-01-27 23:03:00,37.9,35.2,29.07,WSW,242,4.0,10.4,90,0.01,CLR,,0.02,WeatherDisplay:10.37,2013-01-27 23:03:00,
2013-01-27 23:08:00,37.8,35.1,29.08,SW,222,5.4,10.4,90,0.01,CLR,,0.02,WeatherDisplay:10.37,2013-01-27 23:08:00,
2013-01-27 23:13:00,37.7,35.0,29.07,SSW,211,7.0,11.5,90,0.01,CLR,,0.02,WeatherDisplay:10.37,2013-01-27 23:13:00,
2013-01-27 23:18:00,37.7,35.0,29.08,WSW,254,6.8,11.5,90,0.01,CLR,,0.02,WeatherDisplay:10.37,2013-01-27 23:18:00,
2013-01-27 23:23:00,37.7,35.0,29.08,WNW,288,9.7,19.6,90,0.01,CLR,,0.02,WeatherDisplay:10.37,2013-01-27 23:23:00,
2013-01-27 23:28:00,37.7,35.0,29.09,SW,216,6.8,13.0,90,0.01,CLR,,0.02,WeatherDisplay:10.37,2013-01-27 23:28:00,
2013-01-27 23:33:00,37.8,35.4,29.08,West,267,5.0,7.0,91,0.00,CLR,,0.02,WeatherDisplay:10.37,2013-01-27 23:33:00,
2013-01-27 23:38:00,37.8,35.4,29.09,SSW,213,4.3,6.9,91,0.00,CLR,,0.02,WeatherDisplay:10.37,2013-01-27 23:38:00,
2013-01-27 23:43:00,37.9,35.2,29.09,WSW,245,3.7,8.1,90,0.00,CLR,,0.02,WeatherDisplay:10.37,2013-01-27 23:43:00,
2013-01-27 23:48:00,38.2,35.8,29.09,WSW,256,6.7,17.3,91,0.00,CLR,,0.02,WeatherDisplay:10.37,2013-01-27 23:48:00,
2013-01-27 23:53:00,38.4,35.7,29.09,WSW,239,7.5,18.4,90,0.00,CLR,,0.02,WeatherDisplay:10.37,2013-01-27 23:53:00,
2013-01-27 23:58:00,38.8,36.4,29.10,West,269,6.5,11.5,91,0.00,CLR,,0.02,WeatherDisplay:10.37,2013-01-27 23:58:00,